Location: ???????????
(54.5822°N, 39.1075°E)
Time: 06:37:23
(UTC+00:00)

Cosmos 2219 Rocket - Pass Details

Date: 19 May 2025
Orbit: 828 x 844 km, 71.0° (Epoch: 23 June)

Event Time Altitude Azimuth Distance (km) Brightness Sun altitude
Rises 20:37:33 0° 326° (NW) 3,403 6.6 -14.9°
Reaches altitude 10° 20:40:04 10° 331° (NNW) 2,462 5.8 -15.0°
Maximum altitude 20:45:37 55° 49° (NE) 1,006 2.8 -15.1°
Enters shadow 20:50:54 11° 127° (SE) 2,365 4.1 -15.2°
